Time,TemperatureF,DewpointF,PressureIn,WindDirection,WindDirectionDegrees,WindSpeedMPH,WindSpeedGustMPH,Humidity,HourlyPrecipIn,Conditions,Clouds,dailyrainin,SoftwareType,DateUTC
2013-05-19 00:00:00,58.6,53.1,30.02,SSW,206,0.0,3.0,82,0.00,,CLR,0.00,VWS V14.00,2013-05-19 07:00:00,
2013-05-19 00:01:00,58.4,53.3,30.02,SSW,205,0.0,0.0,83,0.00,,CLR,0.00,VWS V14.00,2013-05-19 07:01:00,
2013-05-19 00:06:00,58.4,53.3,30.02,SSW,206,0.0,0.0,83,0.00,,CLR,0.00,VWS V14.00,2013-05-19 07:06:00,
2013-05-19 00:11:00,58.3,53.2,30.02,SSW,206,0.0,0.0,83,0.00,,CLR,0.00,VWS V14.00,2013-05-19 07:11:00,
2013-05-19 00:16:00,58.0,52.9,30.02,SSW,206,0.0,0.0,83,0.00,,CLR,0.00,VWS V14.00,2013-05-19 07:16:00,
2013-05-19 00:21:00,57.8,52.7,30.02,SSW,206,0.0,0.0,83,0.00,,CLR,0.00,VWS V14.00,2013-05-19 07:21:00,
2013-05-19 00:26:00,57.6,52.5,30.02,SSW,206,0.0,0.0,83,0.00,,CLR,0.00,VWS V14.00,2013-05-19 07:26:00,
2013-05-19 00:30:00,57.4,52.6,30.02,SSW,206,0.0,0.0,84,0.00,,CLR,0.00,VWS V14.00,2013-05-19 07:30:00,
2013-05-19 00:31:00,57.6,52.8,30.02,SSW,207,0.0,0.0,84,0.00,,CLR,0.00,VWS V14.00,2013-05-19 07:31:00,
2013-05-19 00:36:00,57.4,52.3,30.02,SSW,207,0.0,1.0,83,0.00,,CLR,0.00,VWS V14.00,2013-05-19 07:36:00,
2013-05-19 00:41:00,57.5,52.4,30.02,SSW,206,0.0,1.0,83,0.00,,CLR,0.00,VWS V14.00,2013-05-19 07:41:00,
2013-05-19 00:46:00,57.4,52.6,30.03,SSW,207,0.0,1.0,84,0.00,,CLR,0.00,VWS V14.00,2013-05-19 07:46:00,
2013-05-19 00:51:00,57.2,52.1,30.02,SSW,207,0.0,1.0,83,0.00,,CLR,0.00,VWS V14.00,2013-05-19 07:51:00,
2013-05-19 00:56:00,57.3,52.2,30.02,SSW,206,0.0,1.0,83,0.00,,CLR,0.00,VWS V14.00,2013-05-19 07:56:00,
2013-05-19 01:00:00,57.4,52.6,30.02,SSW,206,0.0,2.0,84,0.00,,CLR,0.00,VWS V14.00,2013-05-19 08:00:00,
2013-05-19 01:01:00,57.4,52.6,30.02,SSW,206,0.0,0.0,84,0.00,,CLR,0.00,VWS V14.00,2013-05-19 08:01:00,
2013-05-19 01:06:00,57.4,52.6,30.02,SSW,207,0.0,1.0,84,0.00,,CLR,0.00,VWS V14.00,2013-05-19 08:06:00,
2013-05-19 01:11:00,57.3,52.5,30.02,SSW,206,0.0,1.0,84,0.00,,CLR,0.00,VWS V14.00,2013-05-19 08:11:00,
2013-05-19 01:16:00,57.5,52.7,30.01,SSW,207,1.0,1.0,84,0.00,,CLR,0.00,VWS V14.00,2013-05-19 08:16:00,
2013-05-19 01:21:00,57.5,52.7,30.02,SSW,206,0.0,1.0,84,0.00,,CLR,0.00,VWS V14.00,2013-05-19 08:21:00,
2013-05-19 01:26:00,57.3,52.8,30.02,SSW,207,0.0,1.0,85,0.00,,CLR,0.00,VWS V14.00,2013-05-19 08:26:00,
2013-05-19 01:30:00,57.3,52.8,30.02,SSW,206,0.0,1.0,85,0.00,,CLR,0.00,VWS V14.00,2013-05-19 08:30:00,
2013-05-19 01:31:00,57.4,52.9,30.01,SSW,206,0.0,0.0,85,0.00,,CLR,0.00,VWS V14.00,2013-05-19 08:31:00,
2013-05-19 01:36:00,57.1,52.6,30.02,SSW,207,0.0,0.0,85,0.00,,CLR,0.00,VWS V14.00,2013-05-19 08:36:00,
2013-05-19 01:41:00,57.2,52.7,30.02,SSW,206,0.0,0.0,85,0.00,,CLR,0.00,VWS V14.00,2013-05-19 08:41:00,
2013-05-19 01:46:00,56.9,52.4,30.01,SSW,206,0.0,0.0,85,0.00,,CLR,0.00,VWS V14.00,2013-05-19 08:46:00,
2013-05-19 01:51:00,56.8,52.3,30.02,SSW,207,0.0,0.0,85,0.00,,CLR,0.00,VWS V14.00,2013-05-19 08:51:00,
2013-05-19 01:56:00,56.5,52.0,30.02,SSW,206,0.0,0.0,85,0.00,,CLR,0.00,VWS V14.00,2013-05-19 08:56:00,
2013-05-19 02:00:00,56.7,52.2,30.02,SSW,206,0.0,0.0,85,0.00,,CLR,0.00,VWS V14.00,2013-05-19 09:00:00,
2013-05-19 02:01:00,56.5,52.0,30.02,SSW,205,0.0,0.0,85,0.00,,CLR,0.00,VWS V14.00,2013-05-19 09:01:00,
2013-05-19 02:06:00,56.6,52.5,30.02,SSW,206,0.0,0.0,86,0.00,,CLR,0.00,VWS V14.00,2013-05-19 09:06:00,
2013-05-19 02:11:00,56.3,52.2,30.03,SSW,206,0.0,0.0,86,0.00,,CLR,0.00,VWS V14.00,2013-05-19 09:11:00,
2013-05-19 02:16:00,56.4,52.3,30.02,SSW,207,0.0,0.0,86,0.00,,CLR,0.00,VWS V14.00,2013-05-19 09:16:00,
2013-05-19 02:21:00,56.1,52.0,30.02,SSW,206,0.0,0.0,86,0.00,,CLR,0.00,VWS V14.00,2013-05-19 09:21:00,
2013-05-19 02:26:00,55.9,51.8,30.02,SSW,206,0.0,0.0,86,0.00,,CLR,0.00,VWS V14.00,2013-05-19 09:26:00,
2013-05-19 02:30:00,56.1,52.3,30.03,SSW,206,0.0,0.0,87,0.00,,CLR,0.00,VWS V14.00,2013-05-19 09:30:00,
2013-05-19 02:31:00,56.0,52.2,30.02,SSW,207,0.0,0.0,87,0.00,,CLR,0.00,VWS V14.00,2013-05-19 09:31:00,
2013-05-19 02:36:00,56.2,52.7,30.02,SSW,206,0.0,0.0,88,0.00,,CLR,0.00,VWS V14.00,2013-05-19 09:36:00,
2013-05-19 02:41:00,56.0,52.5,30.02,SSW,207,0.0,0.0,88,0.00,,CLR,0.00,VWS V14.00,2013-05-19 09:41:00,
2013-05-19 02:46:00,55.9,52.4,30.02,SSW,207,0.0,0.0,88,0.00,,CLR,0.00,VWS V14.00,2013-05-19 09:46:00,
2013-05-19 02:51:00,55.8,52.3,30.02,SSW,207,0.0,1.0,88,0.00,,CLR,0.00,VWS V14.00,2013-05-19 09:51:00,
2013-05-19 02:56:00,55.7,52.2,30.02,SSW,206,0.0,1.0,88,0.00,,CLR,0.00,VWS V14.00,2013-05-19 09:56:00,
2013-05-19 03:00:00,55.6,52.1,30.02,SSW,206,0.0,2.0,88,0.00,,CLR,0.00,VWS V14.00,2013-05-19 10:00:00,
2013-05-19 03:01:00,55.9,52.4,30.02,SSW,207,0.0,0.0,88,0.00,,CLR,0.00,VWS V14.00,2013-05-19 10:01:00,
2013-05-19 03:06:00,55.6,52.1,30.03,SSW,207,0.0,1.0,88,0.00,,CLR,0.00,VWS V14.00,2013-05-19 10:06:00,
2013-05-19 03:11:00,55.6,52.1,30.03,SSW,206,0.0,1.0,88,0.00,,CLR,0.00,VWS V14.00,2013-05-19 10:11:00,
2013-05-19 03:16:00,55.4,52.2,30.02,SSW,207,0.0,1.0,89,0.00,,CLR,0.00,VWS V14.00,2013-05-19 10:16:00,
2013-05-19 03:21:00,55.5,52.0,30.02,SSW,206,0.0,1.0,88,0.00,,CLR,0.00,VWS V14.00,2013-05-19 10:21:00,
2013-05-19 03:26:00,55.1,51.9,30.01,SSW,206,0.0,1.0,89,0.00,,CLR,0.00,VWS V14.00,2013-05-19 10:26:00,
2013-05-19 03:30:00,55.4,52.2,30.02,SSW,206,0.0,1.0,89,0.00,,CLR,0.00,VWS V14.00,2013-05-19 10:30:00,
2013-05-19 03:31:00,55.1,51.9,30.02,SSW,206,0.0,0.0,89,0.00,,CLR,0.00,VWS V14.00,2013-05-19 10:31:00,
2013-05-19 03:36:00,55.1,51.9,30.03,SSW,206,0.0,0.0,89,0.00,,CLR,0.00,VWS V14.00,2013-05-19 10:36:00,
2013-05-19 03:41:00,55.0,51.8,30.02,SSW,206,0.0,0.0,89,0.00,,CLR,0.00,VWS V14.00,2013-05-19 10:41:00,
2013-05-19 03:46:00,54.8,51.6,30.02,SSW,206,0.0,0.0,89,0.00,,CLR,0.00,VWS V14.00,2013-05-19 10:46:00,
2013-05-19 03:51:00,54.7,51.5,30.03,SSW,206,0.0,0.0,89,0.00,,CLR,0.00,VWS V14.00,2013-05-19 10:51:00,
2013-05-19 03:56:00,54.8,51.6,30.03,SSW,206,0.0,0.0,89,0.00,,CLR,0.00,VWS V14.00,2013-05-19 10:56:00,
2013-05-19 04:00:00,54.7,51.5,30.02,SSW,206,0.0,0.0,89,0.00,,CLR,0.00,VWS V14.00,2013-05-19 11:00:00,
2013-05-19 04:01:00,54.6,51.4,30.02,SSW,206,0.0,0.0,89,0.00,,CLR,0.00,VWS V14.00,2013-05-19 11:01:00,
2013-05-19 04:06:00,54.5,51.3,30.03,SSW,207,0.0,0.0,89,0.00,,CLR,0.00,VWS V14.00,2013-05-19 11:06:00,
2013-05-19 04:11:00,54.5,51.3,30.02,SSW,206,0.0,0.0,89,0.00,,CLR,0.00,VWS V14.00,2013-05-19 11:11:00,
2013-05-19 04:16:00,54.4,51.2,30.03,SSW,206,0.0,0.0,89,0.00,,CLR,0.00,VWS V14.00,2013-05-19 11:16:00,
2013-05-19 04:21:00,54.2,51.0,30.02,SSW,207,0.0,0.0,89,0.00,,CLR,0.00,VWS V14.00,2013-05-19 11:21:00,
2013-05-19 04:26:00,54.2,51.3,30.02,SSW,207,0.0,0.0,90,0.00,,CLR,0.00,VWS V14.00,2013-05-19 11:26:00,
2013-05-19 04:30:00,54.2,51.0,30.02,SSW,207,0.0,0.0,89,0.00,,CLR,0.00,VWS V14.00,2013-05-19 11:30:00,
2013-05-19 04:31:00,54.0,51.1,30.03,SSW,206,0.0,0.0,90,0.00,,CLR,0.00,VWS V14.00,2013-05-19 11:31:00,
2013-05-19 04:36:00,53.9,50.7,30.02,SSW,206,0.0,0.0,89,0.00,,CLR,0.00,VWS V14.00,2013-05-19 11:36:00,
2013-05-19 04:41:00,53.8,50.9,30.03,SSW,207,0.0,0.0,90,0.00,,CLR,0.00,VWS V14.00,2013-05-19 11:41:00,
2013-05-19 04:46:00,53.8,50.9,30.02,SSW,206,0.0,0.0,90,0.00,,CLR,0.00,VWS V14.00,2013-05-19 11:46:00,
2013-05-19 04:51:00,53.7,50.5,30.02,SSW,207,0.0,0.0,89,0.00,,CLR,0.00,VWS V14.00,2013-05-19 11:51:00,
2013-05-19 04:56:00,53.4,50.5,30.02,SSW,206,0.0,0.0,90,0.00,,CLR,0.00,VWS V14.00,2013-05-19 11:56:00,
2013-05-19 05:00:00,53.5,50.7,30.03,SSW,206,0.0,0.0,90,0.00,,CLR,0.00,VWS V14.00,2013-05-19 12:00:00,
2013-05-19 05:01:00,53.1,50.5,30.02,SSW,206,0.0,0.0,91,0.00,,CLR,0.00,VWS V14.00,2013-05-19 12:01:00,
2013-05-19 05:06:00,53.1,50.2,30.02,SSW,206,0.0,0.0,90,0.00,,CLR,0.00,VWS V14.00,2013-05-19 12:06:00,
2013-05-19 05:11:00,53.2,50.3,30.02,SSW,206,0.0,0.0,90,0.00,,CLR,0.00,VWS V14.00,2013-05-19 12:11:00,
2013-05-19 05:16:00,53.0,50.2,30.03,SSW,207,0.0,0.0,90,0.00,,CLR,0.00,VWS V14.00,2013-05-19 12:16:00,
2013-05-19 05:21:00,52.8,50.0,30.03,SSW,206,0.0,0.0,90,0.00,,CLR,0.00,VWS V14.00,2013-05-19 12:21:00,
2013-05-19 05:26:00,52.7,49.8,30.03,SSW,207,0.0,0.0,90,0.00,,CLR,0.00,VWS V14.00,2013-05-19 12:26:00,
2013-05-19 05:30:00,52.7,49.8,30.03,SSW,206,0.0,0.0,90,0.00,,CLR,0.00,VWS V14.00,2013-05-19 12:30:00,
2013-05-19 05:31:00,52.6,49.8,30.03,SSW,206,0.0,0.0,90,0.00,,CLR,0.00,VWS V14.00,2013-05-19 12:31:00,
2013-05-19 05:36:00,52.6,50.0,30.03,SSW,206,0.0,0.0,91,0.00,,CLR,0.00,VWS V14.00,2013-05-19 12:36:00,
2013-05-19 05:41:00,52.5,49.7,30.02,SSW,207,0.0,0.0,90,0.00,,CLR,0.00,VWS V14.00,2013-05-19 12:41:00,
2013-05-19 05:46:00,52.5,49.7,30.03,SSW,207,0.0,0.0,90,0.00,,CLR,0.00,VWS V14.00,2013-05-19 12:46:00,
2013-05-19 05:51:00,52.4,49.3,30.02,SSW,205,0.0,0.0,89,0.00,,CLR,0.00,VWS V14.00,2013-05-19 12:51:00,
2013-05-19 05:56:00,52.3,49.2,30.03,SSW,206,0.0,0.0,89,0.00,,CLR,0.00,VWS V14.00,2013-05-19 12:56:00,
2013-05-19 06:00:00,52.0,48.9,30.03,SSW,206,0.0,0.0,89,0.00,,CLR,0.00,VWS V14.00,2013-05-19 13:00:00,
2013-05-19 06:01:00,52.3,49.2,30.03,SSW,206,0.0,0.0,89,0.00,,CLR,0.00,VWS V14.00,2013-05-19 13:01:00,
2013-05-19 06:06:00,52.3,49.5,30.03,SSW,206,0.0,0.0,90,0.00,,CLR,0.00,VWS V14.00,2013-05-19 13:06:00,
2013-05-19 06:11:00,52.0,49.2,30.03,SSW,206,0.0,0.0,90,0.00,,CLR,0.00,VWS V14.00,2013-05-19 13:11:00,
2013-05-19 06:16:00,51.9,49.1,30.03,SSW,207,0.0,0.0,90,0.00,,CLR,0.00,VWS V14.00,2013-05-19 13:16:00,
2013-05-19 06:21:00,52.1,49.3,30.04,SSW,206,0.0,0.0,90,0.00,,CLR,0.00,VWS V14.00,2013-05-19 13:21:00,
2013-05-19 06:26:00,51.9,48.8,30.03,SSW,206,0.0,0.0,89,0.00,,CLR,0.00,VWS V14.00,2013-05-19 13:26:00,
2013-05-19 06:30:00,52.0,49.2,30.03,SSW,206,0.0,0.0,90,0.00,,CLR,0.00,VWS V14.00,2013-05-19 13:30:00,
2013-05-19 06:31:00,51.8,49.0,30.03,SSW,206,0.0,0.0,90,0.00,,CLR,0.00,VWS V14.00,2013-05-19 13:31:00,
2013-05-19 06:36:00,52.0,49.2,30.03,SSW,206,0.0,0.0,90,0.00,,CLR,0.00,VWS V14.00,2013-05-19 13:36:00,
2013-05-19 06:41:00,52.1,49.3,30.04,SSW,206,0.0,0.0,90,0.00,,CLR,0.00,VWS V14.00,2013-05-19 13:41:00,
2013-05-19 06:46:00,52.3,49.5,30.03,SSW,206,0.0,0.0,90,0.00,,CLR,0.00,VWS V14.00,2013-05-19 13:46:00,
2013-05-19 06:51:00,52.5,49.7,30.04,SSW,206,0.0,0.0,90,0.00,,CLR,0.00,VWS V14.00,2013-05-19 13:51:00,
2013-05-19 06:56:00,52.2,49.4,30.04,SSW,206,0.0,0.0,90,0.00,,CLR,0.00,VWS V14.00,2013-05-19 13:56:00,
2013-05-19 07:00:00,52.5,49.7,30.04,SSW,206,0.0,0.0,90,0.00,,CLR,0.00,VWS V14.00,2013-05-19 14:00:00,
2013-05-19 07:01:00,52.8,50.0,30.04,SSW,206,0.0,0.0,90,0.00,,CLR,0.00,VWS V14.00,2013-05-19 14:01:00,
2013-05-19 07:06:00,52.7,49.8,30.03,SSW,206,0.0,0.0,90,0.00,,CLR,0.00,VWS V14.00,2013-05-19 14:06:00,
2013-05-19 07:11:00,52.8,50.0,30.04,SSW,207,0.0,0.0,90,0.00,,CLR,0.00,VWS V14.00,2013-05-19 14:11:00,
2013-05-19 07:16:00,53.1,50.2,30.04,SSW,206,0.0,0.0,90,0.00,,CLR,0.00,VWS V14.00,2013-05-19 14:16:00,
2013-05-19 07:21:00,53.1,50.2,30.03,SSW,206,0.0,1.0,90,0.00,,CLR,0.00,VWS V14.00,2013-05-19 14:21:00,
2013-05-19 07:26:00,53.3,50.5,30.03,SSW,206,0.0,1.0,90,0.00,,CLR,0.00,VWS V14.00,2013-05-19 14:26:00,
2013-05-19 07:30:00,53.3,50.2,30.04,SSW,206,0.0,1.0,89,0.00,,CLR,0.00,VWS V14.00,2013-05-19 14:30:00,
2013-05-19 07:31:00,53.4,50.2,30.04,SSW,206,0.0,0.0,89,0.00,,CLR,0.00,VWS V14.00,2013-05-19 14:31:00,
2013-05-19 07:36:00,53.7,50.5,30.03,SSW,206,0.0,0.0,89,0.00,,CLR,0.00,VWS V14.00,2013-05-19 14:36:00,
2013-05-19 07:41:00,53.7,50.2,30.03,SSW,206,0.0,0.0,88,0.00,,CLR,0.00,VWS V14.00,2013-05-19 14:41:00,
2013-05-19 07:46:00,53.9,50.1,30.04,SSW,206,0.0,0.0,87,0.00,,CLR,0.00,VWS V14.00,2013-05-19 14:46:00,
2013-05-19 07:51:00,54.5,50.7,30.03,SSW,206,0.0,0.0,87,0.00,,CLR,0.00,VWS V14.00,2013-05-19 14:51:00,
2013-05-19 07:56:00,54.6,50.8,30.03,SSW,206,0.0,0.0,87,0.00,,CLR,0.00,VWS V14.00,2013-05-19 14:56:00,
2013-05-19 08:00:00,54.8,50.7,30.03,SSW,207,0.0,0.0,86,0.00,,CLR,0.00,VWS V14.00,2013-05-19 15:00:00,
2013-05-19 08:01:00,54.8,50.7,30.03,SSW,206,0.0,0.0,86,0.00,,CLR,0.00,VWS V14.00,2013-05-19 15:01:00,
2013-05-19 08:06:00,55.1,51.0,30.04,SSW,207,0.0,0.0,86,0.00,,CLR,0.00,VWS V14.00,2013-05-19 15:06:00,
2013-05-19 08:11:00,55.3,51.2,30.04,SSW,206,0.0,0.0,86,0.00,,CLR,0.00,VWS V14.00,2013-05-19 15:11:00,
2013-05-19 08:16:00,56.0,51.6,30.03,SSW,206,0.0,0.0,85,0.00,,CLR,0.00,VWS V14.00,2013-05-19 15:16:00,
2013-05-19 08:21:00,56.2,51.4,30.04,SSW,206,0.0,0.0,84,0.00,,CLR,0.00,VWS V14.00,2013-05-19 15:21:00,
2013-05-19 08:26:00,56.6,51.8,30.04,SSW,207,0.0,0.0,84,0.00,,CLR,0.00,VWS V14.00,2013-05-19 15:26:00,
2013-05-19 08:30:00,56.8,51.7,30.04,SSW,206,0.0,0.0,83,0.00,,CLR,0.00,VWS V14.00,2013-05-19 15:30:00,
2013-05-19 08:31:00,56.9,51.8,30.03,SSW,206,0.0,0.0,83,0.00,,CLR,0.00,VWS V14.00,2013-05-19 15:31:00,
2013-05-19 08:36:00,57.4,52.0,30.04,SSW,206,0.0,0.0,82,0.00,,CLR,0.00,VWS V14.00,2013-05-19 15:36:00,
2013-05-19 08:41:00,58.1,52.0,30.04,SSW,206,0.0,0.0,80,0.00,,CLR,0.00,VWS V14.00,2013-05-19 15:41:00,
2013-05-19 08:46:00,58.4,52.3,30.03,SSW,207,0.0,0.0,80,0.00,,CLR,0.00,VWS V14.00,2013-05-19 15:46:00,
2013-05-19 08:51:00,58.7,52.2,30.04,SSW,207,0.0,0.0,79,0.00,,CLR,0.00,VWS V14.00,2013-05-19 15:51:00,
2013-05-19 08:56:00,58.8,52.0,30.04,SSW,206,0.0,0.0,78,0.00,,CLR,0.00,VWS V14.00,2013-05-19 15:56:00,
2013-05-19 09:00:00,59.2,52.0,30.03,SSW,207,0.0,0.0,77,0.00,,CLR,0.00,VWS V14.00,2013-05-19 16:00:00,
2013-05-19 09:01:00,59.6,52.0,30.04,SSW,206,0.0,0.0,76,0.00,,CLR,0.00,VWS V14.00,2013-05-19 16:01:00,
2013-05-19 09:06:00,59.9,52.3,30.03,SSW,206,0.0,0.0,76,0.00,,CLR,0.00,VWS V14.00,2013-05-19 16:06:00,
2013-05-19 09:11:00,60.1,52.5,30.03,SSW,207,0.0,0.0,76,0.00,,CLR,0.00,VWS V14.00,2013-05-19 16:11:00,
2013-05-19 09:16:00,60.7,50.9,30.03,SSW,206,0.0,0.0,70,0.00,,CLR,0.00,VWS V14.00,2013-05-19 16:16:00,
2013-05-19 09:21:00,61.2,51.0,30.03,SSW,206,0.0,0.0,69,0.00,,CLR,0.00,VWS V14.00,2013-05-19 16:21:00,
2013-05-19 09:26:00,61.8,50.7,30.03,SSW,206,0.0,0.0,67,0.00,,CLR,0.00,VWS V14.00,2013-05-19 16:26:00,
2013-05-19 09:30:00,62.2,51.1,30.03,SSW,206,0.0,0.0,67,0.00,,CLR,0.00,VWS V14.00,2013-05-19 16:30:00,
2013-05-19 09:31:00,62.3,50.8,30.03,SSW,206,0.0,0.0,66,0.00,,CLR,0.00,VWS V14.00,2013-05-19 16:31:00,
2013-05-19 09:36:00,62.8,51.3,30.03,SSW,206,0.0,0.0,66,0.00,,CLR,0.00,VWS V14.00,2013-05-19 16:36:00,
2013-05-19 09:41:00,63.2,51.2,30.03,SSW,206,0.0,0.0,65,0.00,,CLR,0.00,VWS V14.00,2013-05-19 16:41:00,
2013-05-19 09:46:00,63.6,50.8,30.02,SSW,206,0.0,0.0,63,0.00,,CLR,0.00,VWS V14.00,2013-05-19 16:46:00,
2013-05-19 09:51:00,64.5,50.8,30.02,SSW,206,0.0,0.0,61,0.00,,CLR,0.00,VWS V14.00,2013-05-19 16:51:00,
2013-05-19 09:56:00,64.9,51.2,30.02,NW,321,0.0,0.0,61,0.00,,CLR,0.00,VWS V14.00,2013-05-19 16:56:00,
2013-05-19 10:00:00,65.1,51.3,30.03,NW,322,0.0,0.0,61,0.00,,CLR,0.00,VWS V14.00,2013-05-19 17:00:00,
2013-05-19 10:01:00,65.6,51.8,30.02,NW,323,0.0,0.0,61,0.00,,CLR,0.00,VWS V14.00,2013-05-19 17:01:00,
2013-05-19 10:06:00,66.2,51.9,30.02,NW,323,0.0,0.0,60,0.00,,CLR,0.00,VWS V14.00,2013-05-19 17:06:00,
2013-05-19 10:11:00,66.5,52.2,30.02,NNW,329,0.0,0.0,60,0.00,,CLR,0.00,VWS V14.00,2013-05-19 17:11:00,
2013-05-19 10:16:00,67.1,51.8,30.02,NW,325,0.0,0.0,58,0.00,,CLR,0.00,VWS V14.00,2013-05-19 17:16:00,
2013-05-19 10:21:00,67.3,52.0,30.02,NW,325,0.0,0.0,58,0.00,,CLR,0.00,VWS V14.00,2013-05-19 17:21:00,
2013-05-19 10:26:00,68.0,52.2,30.02,NNW,332,0.0,0.0,57,0.00,,CLR,0.00,VWS V14.00,2013-05-19 17:26:00,
2013-05-19 10:30:00,68.2,52.4,30.02,NNW,332,0.0,0.0,57,0.00,,CLR,0.00,VWS V14.00,2013-05-19 17:30:00,
2013-05-19 10:31:00,68.5,52.7,30.02,NNW,333,0.0,0.0,57,0.00,,CLR,0.00,VWS V14.00,2013-05-19 17:31:00,
2013-05-19 10:36:00,68.7,50.9,30.02,NNW,331,0.0,0.0,53,0.00,,CLR,0.00,VWS V14.00,2013-05-19 17:36:00,
2013-05-19 10:41:00,69.2,51.4,30.01,NNW,334,0.0,0.0,53,0.00,,CLR,0.00,VWS V14.00,2013-05-19 17:41:00,
2013-05-19 10:46:00,69.6,51.2,30.01,NNW,334,0.0,0.0,52,0.00,,CLR,0.00,VWS V14.00,2013-05-19 17:46:00,
2013-05-19 10:51:00,69.7,50.8,30.01,SW,232,0.0,0.0,51,0.00,,CLR,0.00,VWS V14.00,2013-05-19 17:51:00,
2013-05-19 10:56:00,70.0,50.5,30.01,WSW,241,0.0,0.0,50,0.00,,CLR,0.00,VWS V14.00,2013-05-19 17:56:00,
2013-05-19 11:00:00,70.6,51.6,30.01,WSW,242,0.0,0.0,51,0.00,,CLR,0.00,VWS V14.00,2013-05-19 18:00:00,
2013-05-19 11:01:00,70.5,51.0,30.01,West,259,0.0,1.0,50,0.00,,CLR,0.00,VWS V14.00,2013-05-19 18:01:00,
2013-05-19 11:06:00,70.9,50.8,30.00,NW,310,0.0,1.0,49,0.00,,CLR,0.00,VWS V14.00,2013-05-19 18:06:00,
2013-05-19 11:11:00,71.5,51.9,30.01,NW,313,0.0,1.0,50,0.00,,CLR,0.00,VWS V14.00,2013-05-19 18:11:00,
2013-05-19 11:16:00,72.3,51.5,30.01,NW,322,0.0,1.0,48,0.00,,CLR,0.00,VWS V14.00,2013-05-19 18:16:00,
2013-05-19 11:21:00,72.9,50.9,30.01,NE,44,0.0,1.0,46,0.00,,CLR,0.00,VWS V14.00,2013-05-19 18:21:00,
2013-05-19 11:26:00,73.2,51.2,30.01,NE,40,0.0,1.0,46,0.00,,CLR,0.00,VWS V14.00,2013-05-19 18:26:00,
2013-05-19 11:30:00,73.6,50.4,30.01,NE,41,0.0,1.0,44,0.00,,CLR,0.00,VWS V14.00,2013-05-19 18:30:00,
2013-05-19 11:31:00,73.8,50.5,30.00,NE,40,0.0,0.0,44,0.00,,CLR,0.00,VWS V14.00,2013-05-19 18:31:00,
2013-05-19 11:36:00,73.9,50.6,30.00,NE,39,0.0,0.0,44,0.00,,CLR,0.00,VWS V14.00,2013-05-19 18:36:00,
2013-05-19 11:41:00,74.2,51.5,30.00,NE,38,0.0,0.0,45,0.00,,CLR,0.00,VWS V14.00,2013-05-19 18:41:00,
2013-05-19 11:46:00,74.7,50.7,30.00,NE,35,0.0,0.0,43,0.00,,CLR,0.00,VWS V14.00,2013-05-19 18:46:00,
2013-05-19 11:51:00,75.1,51.1,30.00,NNE,22,0.0,0.0,43,0.00,,CLR,0.00,VWS V14.00,2013-05-19 18:51:00,
2013-05-19 11:56:00,75.5,50.2,29.99,NNE,29,0.0,0.0,41,0.00,,CLR,0.00,VWS V14.00,2013-05-19 18:56:00,
2013-05-19 12:00:00,76.1,50.7,29.99,NNE,22,0.0,0.0,41,0.00,,CLR,0.00,VWS V14.00,2013-05-19 19:00:00,
2013-05-19 12:01:00,76.2,50.1,29.99,NNE,21,0.0,0.0,40,0.00,,CLR,0.00,VWS V14.00,2013-05-19 19:01:00,
2013-05-19 12:06:00,76.4,50.3,29.99,NNE,20,0.0,0.0,40,0.00,,CLR,0.00,VWS V14.00,2013-05-19 19:06:00,
2013-05-19 12:11:00,77.2,51.7,29.99,ENE,63,0.0,0.0,41,0.00,,CLR,0.00,VWS V14.00,2013-05-19 19:11:00,
2013-05-19 12:16:00,77.5,52.0,29.99,ESE,108,0.0,0.0,41,0.00,,CLR,0.00,VWS V14.00,2013-05-19 19:16:00,
2013-05-19 12:21:00,78.0,51.1,29.99,NNW,347,0.0,1.0,39,0.00,,CLR,0.00,VWS V14.00,2013-05-19 19:21:00,
2013-05-19 12:26:00,78.2,51.2,29.98,NE,45,0.0,1.0,39,0.00,,CLR,0.00,VWS V14.00,2013-05-19 19:26:00,
2013-05-19 12:30:00,78.7,52.4,29.98,NNE,29,0.0,1.0,40,0.00,,CLR,0.00,VWS V14.00,2013-05-19 19:30:00,
2013-05-19 12:31:00,79.1,52.0,29.98,NNE,20,0.0,0.0,39,0.00,,CLR,0.00,VWS V14.00,2013-05-19 19:31:00,
2013-05-19 12:36:00,79.7,51.9,29.98,NNE,17,0.0,0.0,38,0.00,,CLR,0.00,VWS V14.00,2013-05-19 19:36:00,
2013-05-19 12:41:00,79.9,51.3,29.98,NW,317,0.0,1.0,37,0.00,,CLR,0.00,VWS V14.00,2013-05-19 19:41:00,
2013-05-19 12:46:00,80.4,51.0,29.97,North,353,0.0,2.0,36,0.00,,CLR,0.00,VWS V14.00,2013-05-19 19:46:00,
2013-05-19 12:51:00,80.8,50.6,29.97,NNW,330,1.0,4.0,35,0.00,,CLR,0.00,VWS V14.00,2013-05-19 19:51:00,
2013-05-19 12:56:00,80.9,49.1,29.98,NE,35,0.0,4.0,33,0.00,,CLR,0.00,VWS V14.00,2013-05-19 19:56:00,
2013-05-19 13:00:00,81.4,49.6,29.97,South,173,0.0,4.0,33,0.00,,CLR,0.00,VWS V14.00,2013-05-19 20:00:00,
2013-05-19 13:01:00,81.4,49.6,29.97,SSE,167,0.0,1.0,33,0.00,,CLR,0.00,VWS V14.00,2013-05-19 20:01:00,
2013-05-19 13:06:00,81.8,49.9,29.97,NNE,21,0.0,3.0,33,0.00,,CLR,0.00,VWS V14.00,2013-05-19 20:06:00,
2013-05-19 13:11:00,82.4,51.2,29.97,North,358,0.0,3.0,34,0.00,,CLR,0.00,VWS V14.00,2013-05-19 20:11:00,
2013-05-19 13:16:00,82.7,50.7,29.96,North,10,0.0,3.0,33,0.00,,CLR,0.00,VWS V14.00,2013-05-19 20:16:00,
2013-05-19 13:21:00,83.2,51.1,29.96,WSW,251,0.0,3.0,33,0.00,,CLR,0.00,VWS V14.00,2013-05-19 20:21:00,
2013-05-19 13:26:00,83.5,51.4,29.96,NE,44,0.0,3.0,33,0.00,,CLR,0.00,VWS V14.00,2013-05-19 20:26:00,
2013-05-19 13:30:00,83.6,52.3,29.96,ENE,66,0.0,3.0,34,0.00,,CLR,0.00,VWS V14.00,2013-05-19 20:30:00,
2013-05-19 13:31:00,83.7,51.6,29.96,SSW,197,1.0,4.0,33,0.00,,CLR,0.00,VWS V14.00,2013-05-19 20:31:00,
2013-05-19 13:36:00,83.7,51.6,29.96,WSW,240,0.0,4.0,33,0.00,,CLR,0.00,VWS V14.00,2013-05-19 20:36:00,
2013-05-19 13:41:00,84.4,51.3,29.95,WSW,246,0.0,4.0,32,0.00,,CLR,0.00,VWS V14.00,2013-05-19 20:41:00,
2013-05-19 13:46:00,84.9,51.8,29.95,NW,315,0.0,6.0,32,0.00,,CLR,0.00,VWS V14.00,2013-05-19 20:46:00,
2013-05-19 13:51:00,85.1,51.1,29.95,NNW,333,0.0,6.0,31,0.00,,CLR,0.00,VWS V14.00,2013-05-19 20:51:00,
2013-05-19 13:56:00,85.2,51.2,29.95,NNW,341,2.0,6.0,31,0.00,,CLR,0.00,VWS V14.00,2013-05-19 20:56:00,
2013-05-19 14:00:00,85.3,50.4,29.95,North,0,0.0,6.0,30,0.00,,CLR,0.00,VWS V14.00,2013-05-19 21:00:00,
2013-05-19 14:01:00,85.6,50.7,29.95,North,357,1.0,4.0,30,0.00,,CLR,0.00,VWS V14.00,2013-05-19 21:01:00,
2013-05-19 14:06:00,85.6,50.7,29.95,SE,143,0.0,4.0,30,0.00,,CLR,0.00,VWS V14.00,2013-05-19 21:06:00,
2013-05-19 14:11:00,85.9,50.9,29.95,WSW,242,0.0,4.0,30,0.00,,CLR,0.00,VWS V14.00,2013-05-19 21:11:00,
2013-05-19 14:16:00,86.9,54.4,29.94,NNW,330,0.0,4.0,33,0.00,,CLR,0.00,VWS V14.00,2013-05-19 21:16:00,
2013-05-19 14:21:00,87.4,54.8,29.94,North,359,0.0,4.0,33,0.00,,CLR,0.00,VWS V14.00,2013-05-19 21:21:00,
2013-05-19 14:26:00,87.8,52.5,29.94,North,359,0.0,4.0,30,0.00,,CLR,0.00,VWS V14.00,2013-05-19 21:26:00,
2013-05-19 14:30:00,87.8,49.7,29.94,NNW,346,0.0,4.0,27,0.00,,CLR,0.00,VWS V14.00,2013-05-19 21:30:00,
2013-05-19 14:31:00,87.7,49.6,29.94,North,0,0.0,3.0,27,0.00,,CLR,0.00,VWS V14.00,2013-05-19 21:31:00,
2013-05-19 14:36:00,87.9,51.7,29.94,North,355,1.0,4.0,29,0.00,,CLR,0.00,VWS V14.00,2013-05-19 21:36:00,
2013-05-19 14:41:00,87.7,49.6,29.94,NNW,338,0.0,4.0,27,0.00,,CLR,0.00,VWS V14.00,2013-05-19 21:41:00,
2013-05-19 14:46:00,87.9,53.5,29.93,North,0,0.0,4.0,31,0.00,,CLR,0.00,VWS V14.00,2013-05-19 21:46:00,
2013-05-19 14:51:00,88.2,53.8,29.93,SW,236,0.0,4.0,31,0.00,,CLR,0.00,VWS V14.00,2013-05-19 21:51:00,
2013-05-19 14:56:00,88.0,55.3,29.93,SE,141,1.0,5.0,33,0.00,,CLR,0.00,VWS V14.00,2013-05-19 21:56:00,
2013-05-19 15:00:00,87.9,55.2,29.93,NW,319,0.0,5.0,33,0.00,,CLR,0.00,VWS V14.00,2013-05-19 22:00:00,
2013-05-19 15:01:00,88.3,55.6,29.93,North,4,1.0,1.0,33,0.00,,CLR,0.00,VWS V14.00,2013-05-19 22:01:00,
2013-05-19 15:06:00,88.1,55.4,29.93,NE,37,0.0,3.0,33,0.00,,CLR,0.00,VWS V14.00,2013-05-19 22:06:00,
2013-05-19 15:11:00,87.7,55.1,29.93,NNE,25,1.0,6.0,33,0.00,,CLR,0.00,VWS V14.00,2013-05-19 22:11:00,
2013-05-19 15:16:00,87.4,54.8,29.93,North,0,0.0,6.0,33,0.00,,CLR,0.00,VWS V14.00,2013-05-19 22:16:00,
2013-05-19 15:21:00,87.1,54.5,29.93,SSW,211,0.0,6.0,33,0.00,,CLR,0.00,VWS V14.00,2013-05-19 22:21:00,
2013-05-19 15:26:00,87.1,56.2,29.93,NW,317,0.0,6.0,35,0.00,,CLR,0.00,VWS V14.00,2013-05-19 22:26:00,
2013-05-19 15:30:00,87.2,55.4,29.93,SW,215,0.0,6.0,34,0.00,,CLR,0.00,VWS V14.00,2013-05-19 22:30:00,
2013-05-19 15:31:00,86.6,54.9,29.93,SSW,206,0.0,3.0,34,0.00,,CLR,0.00,VWS V14.00,2013-05-19 22:31:00,
2013-05-19 15:36:00,86.3,54.7,29.92,NW,307,1.0,10.0,34,0.00,,CLR,0.00,VWS V14.00,2013-05-19 22:36:00,
2013-05-19 15:41:00,86.2,55.4,29.92,North,0,0.0,10.0,35,0.00,,CLR,0.00,VWS V14.00,2013-05-19 22:41:00,
2013-05-19 15:46:00,86.3,53.8,29.92,North,359,1.0,10.0,33,0.00,,CLR,0.00,VWS V14.00,2013-05-19 22:46:00,
2013-05-19 15:51:00,86.4,54.7,29.92,SW,224,0.0,10.0,34,0.00,,CLR,0.00,VWS V14.00,2013-05-19 22:51:00,
2013-05-19 15:56:00,86.4,55.5,29.92,NNW,346,0.0,10.0,35,0.00,,CLR,0.00,VWS V14.00,2013-05-19 22:56:00,
2013-05-19 16:00:00,86.2,53.8,29.92,NNW,327,1.0,10.0,33,0.00,,CLR,0.00,VWS V14.00,2013-05-19 23:00:00,
2013-05-19 16:01:00,86.0,55.2,29.92,North,357,0.0,1.0,35,0.00,,CLR,0.00,VWS V14.00,2013-05-19 23:01:00,
2013-05-19 16:06:00,86.3,55.5,29.92,NNW,337,0.0,3.0,35,0.00,,CLR,0.00,VWS V14.00,2013-05-19 23:06:00,
2013-05-19 16:11:00,86.1,54.5,29.92,WNW,303,1.0,6.0,34,0.00,,CLR,0.00,VWS V14.00,2013-05-19 23:11:00,
2013-05-19 16:16:00,85.7,54.1,29.91,NNW,330,4.0,8.0,34,0.00,,CLR,0.00,VWS V14.00,2013-05-19 23:16:00,
2013-05-19 16:21:00,85.5,54.0,29.91,NW,320,0.0,8.0,34,0.00,,CLR,0.00,VWS V14.00,2013-05-19 23:21:00,
2013-05-19 16:26:00,85.3,53.8,29.91,NNW,348,0.0,8.0,34,0.00,,CLR,0.00,VWS V14.00,2013-05-19 23:26:00,
2013-05-19 16:30:00,85.2,53.7,29.91,NNW,338,0.0,8.0,34,0.00,,CLR,0.00,VWS V14.00,2013-05-19 23:30:00,
2013-05-19 16:31:00,85.1,54.4,29.91,NNW,338,0.0,1.0,35,0.00,,CLR,0.00,VWS V14.00,2013-05-19 23:31:00,
2013-05-19 16:36:00,84.9,53.4,29.91,NW,314,0.0,4.0,34,0.00,,CLR,0.00,VWS V14.00,2013-05-19 23:36:00,
2013-05-19 16:41:00,84.6,54.7,29.91,WNW,298,0.0,4.0,36,0.00,,CLR,0.00,VWS V14.00,2013-05-19 23:41:00,
2013-05-19 16:46:00,84.5,53.9,29.90,North,0,0.0,5.0,35,0.00,,CLR,0.00,VWS V14.00,2013-05-19 23:46:00,
2013-05-19 16:51:00,84.1,53.5,29.90,NW,323,2.0,5.0,35,0.00,,CLR,0.00,VWS V14.00,2013-05-19 23:51:00,
2013-05-19 16:56:00,83.8,53.3,29.91,NW,324,0.0,5.0,35,0.00,,CLR,0.00,VWS V14.00,2013-05-19 23:56:00,
2013-05-19 17:00:00,83.7,53.2,29.90,WNW,298,0.0,5.0,35,0.00,,CLR,0.00,VWS V14.00,2013-05-20 00:00:00,
2013-05-19 17:01:00,83.7,53.2,29.90,North,351,0.0,2.0,35,0.00,,CLR,0.00,VWS V14.00,2013-05-20 00:01:00,
2013-05-19 17:06:00,83.3,53.6,29.90,North,353,0.0,5.0,36,0.00,,CLR,0.00,VWS V14.00,2013-05-20 00:06:00,
2013-05-19 17:11:00,83.0,54.1,29.90,SE,132,0.0,5.0,37,0.00,,CLR,0.00,VWS V14.00,2013-05-20 00:11:00,
2013-05-19 17:16:00,82.8,53.9,29.91,North,358,0.0,5.0,37,0.00,,CLR,0.00,VWS V14.00,2013-05-20 00:16:00,
2013-05-19 17:21:00,82.8,53.2,29.90,North,355,0.0,6.0,36,0.00,,CLR,0.00,VWS V14.00,2013-05-20 00:21:00,
2013-05-19 17:26:00,82.7,53.1,29.90,NE,42,0.0,6.0,36,0.00,,CLR,0.00,VWS V14.00,2013-05-20 00:26:00,
2013-05-19 17:30:00,82.2,52.6,29.90,WSW,237,0.0,7.0,36,0.00,,CLR,0.00,VWS V14.00,2013-05-20 00:30:00,
2013-05-19 17:31:00,81.8,52.3,29.90,NNW,339,0.0,2.0,36,0.00,,CLR,0.00,VWS V14.00,2013-05-20 00:31:00,
2013-05-19 17:36:00,81.5,52.0,29.90,North,8,0.0,7.0,36,0.00,,CLR,0.00,VWS V14.00,2013-05-20 00:36:00,
2013-05-19 17:41:00,81.4,51.9,29.90,WNW,303,3.0,7.0,36,0.00,,CLR,0.00,VWS V14.00,2013-05-20 00:41:00,
2013-05-19 17:46:00,80.9,51.5,29.90,North,354,1.0,7.0,36,0.00,,CLR,0.00,VWS V14.00,2013-05-20 00:46:00,
2013-05-19 17:51:00,80.6,50.5,29.90,North,349,0.0,7.0,35,0.00,,CLR,0.00,VWS V14.00,2013-05-20 00:51:00,
2013-05-19 17:56:00,80.6,51.2,29.90,NNE,23,0.0,7.0,36,0.00,,CLR,0.00,VWS V14.00,2013-05-20 00:56:00,
2013-05-19 18:00:00,80.3,50.9,29.90,WSW,239,0.0,7.0,36,0.00,,CLR,0.00,VWS V14.00,2013-05-20 01:00:00,
2013-05-19 18:01:00,80.4,51.0,29.90,NNW,340,1.0,1.0,36,0.00,,CLR,0.00,VWS V14.00,2013-05-20 01:01:00,
2013-05-19 18:06:00,80.3,51.7,29.89,WSW,243,0.0,3.0,37,0.00,,CLR,0.00,VWS V14.00,2013-05-20 01:06:00,
2013-05-19 18:11:00,80.3,52.4,29.89,NW,314,0.0,3.0,38,0.00,,CLR,0.00,VWS V14.00,2013-05-20 01:11:00,
2013-05-19 18:16:00,79.8,52.0,29.89,NW,324,0.0,6.0,38,0.00,,CLR,0.00,VWS V14.00,2013-05-20 01:16:00,
2013-05-19 18:21:00,79.8,51.2,29.90,WNW,302,0.0,6.0,37,0.00,,CLR,0.00,VWS V14.00,2013-05-20 01:21:00,
2013-05-19 18:26:00,79.4,50.9,29.89,WNW,299,0.0,6.0,37,0.00,,CLR,0.00,VWS V14.00,2013-05-20 01:26:00,
2013-05-19 18:30:00,79.4,50.9,29.89,NNW,330,0.0,6.0,37,0.00,,CLR,0.00,VWS V14.00,2013-05-20 01:30:00,
2013-05-19 18:31:00,79.1,50.6,29.89,NNW,330,0.0,0.0,37,0.00,,CLR,0.00,VWS V14.00,2013-05-20 01:31:00,
2013-05-19 18:36:00,79.3,50.8,29.89,NNE,13,2.0,3.0,37,0.00,,CLR,0.00,VWS V14.00,2013-05-20 01:36:00,
2013-05-19 18:41:00,78.9,49.7,29.89,NW,311,0.0,3.0,36,0.00,,CLR,0.00,VWS V14.00,2013-05-20 01:41:00,
2013-05-19 18:46:00,78.8,51.1,29.89,NW,315,0.0,5.0,38,0.00,,CLR,0.00,VWS V14.00,2013-05-20 01:46:00,
2013-05-19 18:51:00,78.5,50.8,29.89,NW,326,0.0,5.0,38,0.00,,CLR,0.00,VWS V14.00,2013-05-20 01:51:00,
2013-05-19 18:56:00,78.1,50.5,29.89,NNW,343,0.0,5.0,38,0.00,,CLR,0.00,VWS V14.00,2013-05-20 01:56:00,
2013-05-19 19:00:00,78.2,50.5,29.89,NNW,342,0.0,5.0,38,0.00,,CLR,0.00,VWS V14.00,2013-05-20 02:00:00,
2013-05-19 19:01:00,77.9,50.3,29.89,NNW,342,0.0,0.0,38,0.00,,CLR,0.00,VWS V14.00,2013-05-20 02:01:00,
2013-05-19 19:06:00,77.7,49.4,29.88,NNW,342,0.0,1.0,37,0.00,,CLR,0.00,VWS V14.00,2013-05-20 02:06:00,
2013-05-19 19:11:00,77.3,49.0,29.89,North,350,0.0,1.0,37,0.00,,CLR,0.00,VWS V14.00,2013-05-20 02:11:00,
2013-05-19 19:16:00,76.9,47.9,29.89,NNE,32,0.0,2.0,36,0.00,,CLR,0.00,VWS V14.00,2013-05-20 02:16:00,
2013-05-19 19:21:00,76.7,47.8,29.89,NNE,29,0.0,2.0,36,0.00,,CLR,0.00,VWS V14.00,2013-05-20 02:21:00,
2013-05-19 19:26:00,76.2,47.3,29.89,North,3,0.0,2.0,36,0.00,,CLR,0.00,VWS V14.00,2013-05-20 02:26:00,
2013-05-19 19:30:00,76.2,47.3,29.89,North,3,0.0,2.0,36,0.00,,CLR,0.00,VWS V14.00,2013-05-20 02:30:00,
2013-05-19 19:31:00,76.1,46.5,29.89,North,0,0.0,1.0,35,0.00,,CLR,0.00,VWS V14.00,2013-05-20 02:31:00,
2013-05-19 19:36:00,76.0,47.2,29.89,North,0,0.0,1.0,36,0.00,,CLR,0.00,VWS V14.00,2013-05-20 02:36:00,
2013-05-19 19:41:00,75.6,46.8,29.89,NNW,338,0.0,1.0,36,0.00,,CLR,0.00,VWS V14.00,2013-05-20 02:41:00,
2013-05-19 19:46:00,75.2,46.4,29.90,NNW,337,0.0,1.0,36,0.00,,CLR,0.00,VWS V14.00,2013-05-20 02:46:00,
2013-05-19 19:51:00,75.0,46.3,29.90,NNW,333,0.0,1.0,36,0.00,,CLR,0.00,VWS V14.00,2013-05-20 02:51:00,
2013-05-19 19:56:00,75.0,46.3,29.90,NNW,332,0.0,1.0,36,0.00,,CLR,0.00,VWS V14.00,2013-05-20 02:56:00,
2013-05-19 20:00:00,74.4,47.2,29.90,NNW,330,0.0,1.0,38,0.00,,CLR,0.00,VWS V14.00,2013-05-20 03:00:00,
2013-05-19 20:01:00,74.6,48.0,29.90,NNW,331,0.0,0.0,39,0.00,,CLR,0.00,VWS V14.00,2013-05-20 03:01:00,
2013-05-19 20:06:00,74.4,48.5,29.90,NNW,334,0.0,0.0,40,0.00,,CLR,0.00,VWS V14.00,2013-05-20 03:06:00,
2013-05-19 20:11:00,74.0,48.8,29.90,NNW,335,0.0,0.0,41,0.00,,CLR,0.00,VWS V14.00,2013-05-20 03:11:00,
2013-05-19 20:16:00,73.6,49.8,29.90,NNW,334,0.0,0.0,43,0.00,,CLR,0.00,VWS V14.00,2013-05-20 03:16:00,
2013-05-19 20:21:00,73.1,50.5,29.90,NNW,331,0.0,0.0,45,0.00,,CLR,0.00,VWS V14.00,2013-05-20 03:21:00,
2013-05-19 20:26:00,72.8,50.8,29.91,NNW,332,0.0,0.0,46,0.00,,CLR,0.00,VWS V14.00,2013-05-20 03:26:00,
2013-05-19 20:30:00,72.5,50.6,29.90,NNW,334,0.0,0.0,46,0.00,,CLR,0.00,VWS V14.00,2013-05-20 03:30:00,
2013-05-19 20:31:00,72.5,51.2,29.90,NNW,332,0.0,0.0,47,0.00,,CLR,0.00,VWS V14.00,2013-05-20 03:31:00,
2013-05-19 20:36:00,72.0,50.7,29.90,NNW,337,0.0,1.0,47,0.00,,CLR,0.00,VWS V14.00,2013-05-20 03:36:00,
2013-05-19 20:41:00,71.8,50.5,29.91,NNW,335,0.0,1.0,47,0.00,,CLR,0.00,VWS V14.00,2013-05-20 03:41:00,
2013-05-19 20:46:00,71.5,51.4,29.90,NNW,332,0.0,1.0,49,0.00,,CLR,0.00,VWS V14.00,2013-05-20 03:46:00,
2013-05-19 20:51:00,71.1,51.0,29.91,NNW,336,0.0,1.0,49,0.00,,CLR,0.00,VWS V14.00,2013-05-20 03:51:00,
2013-05-19 20:56:00,70.8,50.2,29.91,NNW,336,0.0,1.0,48,0.00,,CLR,0.00,VWS V14.00,2013-05-20 03:56:00,
2013-05-19 21:00:00,70.4,49.8,29.91,NNW,335,0.0,1.0,48,0.00,,CLR,0.00,VWS V14.00,2013-05-20 04:00:00,
2013-05-19 21:01:00,70.5,49.9,29.91,NNW,331,0.0,0.0,48,0.00,,CLR,0.00,VWS V14.00,2013-05-20 04:01:00,
2013-05-19 21:02:00,70.4,50.3,29.91,NNW,334,0.0,0.0,49,0.00,,CLR,0.00,VWS V14.00,2013-05-20 04:02:00,
2013-05-19 21:07:00,69.7,49.7,29.91,NNW,335,0.0,0.0,49,0.00,,CLR,0.00,VWS V14.00,2013-05-20 04:07:00,
2013-05-19 21:12:00,69.4,50.0,29.91,NNW,333,0.0,0.0,50,0.00,,CLR,0.00,VWS V14.00,2013-05-20 04:12:00,
2013-05-19 21:17:00,69.2,50.3,29.91,NNW,334,0.0,0.0,51,0.00,,CLR,0.00,VWS V14.00,2013-05-20 04:17:00,
2013-05-19 21:22:00,68.8,50.0,29.91,NNW,334,0.0,0.0,51,0.00,,CLR,0.00,VWS V14.00,2013-05-20 04:22:00,
2013-05-19 21:27:00,68.6,50.3,29.91,NNW,336,0.0,0.0,52,0.00,,CLR,0.00,VWS V14.00,2013-05-20 04:27:00,
2013-05-19 21:30:00,68.4,50.1,29.92,NNW,337,0.0,0.0,52,0.00,,CLR,0.00,VWS V14.00,2013-05-20 04:30:00,
2013-05-19 21:32:00,68.2,50.4,29.91,NNW,332,0.0,0.0,53,0.00,,CLR,0.00,VWS V14.00,2013-05-20 04:32:00,
2013-05-19 21:37:00,68.1,50.3,29.92,NNW,337,0.0,0.0,53,0.00,,CLR,0.00,VWS V14.00,2013-05-20 04:37:00,
2013-05-19 21:42:00,67.6,50.4,29.92,NNW,333,0.0,0.0,54,0.00,,CLR,0.00,VWS V14.00,2013-05-20 04:42:00,
2013-05-19 21:47:00,67.5,50.8,29.92,NNW,337,0.0,0.0,55,0.00,,CLR,0.00,VWS V14.00,2013-05-20 04:47:00,
2013-05-19 21:52:00,67.3,50.6,29.92,NNW,338,0.0,0.0,55,0.00,,CLR,0.00,VWS V14.00,2013-05-20 04:52:00,
2013-05-19 21:57:00,66.8,50.1,29.92,NNW,335,0.0,0.0,55,0.00,,CLR,0.00,VWS V14.00,2013-05-20 04:57:00,
2013-05-19 22:00:00,66.7,50.0,29.92,NNW,338,0.0,0.0,55,0.00,,CLR,0.00,VWS V14.00,2013-05-20 05:00:00,
2013-05-19 22:02:00,66.6,50.4,29.92,NNW,338,0.0,0.0,56,0.00,,CLR,0.00,VWS V14.00,2013-05-20 05:02:00,
2013-05-19 22:07:00,66.5,50.3,29.92,NNW,340,0.0,0.0,56,0.00,,CLR,0.00,VWS V14.00,2013-05-20 05:07:00,
2013-05-19 22:12:00,66.0,49.9,29.92,NNW,333,0.0,0.0,56,0.00,,CLR,0.00,VWS V14.00,2013-05-20 05:12:00,
2013-05-19 22:17:00,65.9,50.2,29.92,NNW,336,0.0,0.0,57,0.00,,CLR,0.00,VWS V14.00,2013-05-20 05:17:00,
2013-05-19 22:22:00,65.4,49.8,29.93,NNW,333,0.0,0.0,57,0.00,,CLR,0.00,VWS V14.00,2013-05-20 05:22:00,
2013-05-19 22:27:00,65.1,50.0,29.93,NNW,334,0.0,0.0,58,0.00,,CLR,0.00,VWS V14.00,2013-05-20 05:27:00,
2013-05-19 22:30:00,65.1,50.4,29.93,NNW,334,0.0,0.0,59,0.00,,CLR,0.00,VWS V14.00,2013-05-20 05:30:00,
2013-05-19 22:32:00,65.1,50.0,29.92,NNW,336,0.0,0.0,58,0.00,,CLR,0.00,VWS V14.00,2013-05-20 05:32:00,
2013-05-19 22:37:00,64.7,50.1,29.93,NNW,336,0.0,0.0,59,0.00,,CLR,0.00,VWS V14.00,2013-05-20 05:37:00,
2013-05-19 22:42:00,64.5,49.9,29.93,NNW,334,0.0,0.0,59,0.00,,CLR,0.00,VWS V14.00,2013-05-20 05:42:00,
2013-05-19 22:47:00,64.3,50.1,29.92,NNW,331,0.0,0.0,60,0.00,,CLR,0.00,VWS V14.00,2013-05-20 05:47:00,
2013-05-19 22:52:00,64.0,49.8,29.92,NNW,335,0.0,0.0,60,0.00,,CLR,0.00,VWS V14.00,2013-05-20 05:52:00,
2013-05-19 22:57:00,63.6,49.5,29.92,NNW,333,0.0,0.0,60,0.00,,CLR,0.00,VWS V14.00,2013-05-20 05:57:00,
2013-05-19 23:00:00,63.5,49.4,29.92,NNW,333,0.0,0.0,60,0.00,,CLR,0.00,VWS V14.00,2013-05-20 06:00:00,
2013-05-19 23:02:00,63.4,49.7,29.92,NNW,333,0.0,0.0,61,0.00,,CLR,0.00,VWS V14.00,2013-05-20 06:02:00,
2013-05-19 23:07:00,63.2,50.0,29.92,NNW,335,0.0,0.0,62,0.00,,CLR,0.00,VWS V14.00,2013-05-20 06:07:00,
2013-05-19 23:12:00,63.0,49.8,29.92,NNW,337,0.0,0.0,62,0.00,,CLR,0.00,VWS V14.00,2013-05-20 06:12:00,
2013-05-19 23:17:00,62.8,50.0,29.92,NNW,332,0.0,0.0,63,0.00,,CLR,0.00,VWS V14.00,2013-05-20 06:17:00,
2013-05-19 23:22:00,62.6,49.8,29.92,NNW,338,0.0,0.0,63,0.00,,CLR,0.00,VWS V14.00,2013-05-20 06:22:00,
2013-05-19 23:27:00,62.3,49.6,29.92,NNW,338,0.0,0.0,63,0.00,,CLR,0.00,VWS V14.00,2013-05-20 06:27:00,
2013-05-19 23:30:00,62.4,49.7,29.92,NNW,333,0.0,0.0,63,0.00,,CLR,0.00,VWS V14.00,2013-05-20 06:30:00,
2013-05-19 23:32:00,62.4,50.1,29.92,NNW,337,0.0,0.0,64,0.00,,CLR,0.00,VWS V14.00,2013-05-20 06:32:00,
2013-05-19 23:37:00,61.9,50.0,29.91,NNW,337,0.0,0.0,65,0.00,,CLR,0.00,VWS V14.00,2013-05-20 06:37:00,
2013-05-19 23:42:00,61.9,50.0,29.91,NNW,334,0.0,0.0,65,0.00,,CLR,0.00,VWS V14.00,2013-05-20 06:42:00,
2013-05-19 23:47:00,61.5,50.0,29.91,NNW,336,0.0,0.0,66,0.00,,CLR,0.00,VWS V14.00,2013-05-20 06:47:00,
2013-05-19 23:52:00,61.4,50.4,29.91,NNW,334,0.0,0.0,67,0.00,,CLR,0.00,VWS V14.00,2013-05-20 06:52:00,
2013-05-19 23:57:00,61.2,50.2,29.91,NNW,334,0.0,0.0,67,0.00,,CLR,0.00,VWS V14.00,2013-05-20 06:57:00,